Find Kosmos-2437

NORAD ID: 32954 Int'l Des: 2008-025 Owner: KVR Country: RU operational
LEOCIRCULARPOLAR

Live Position

Loading 3D Globe...

About Kosmos-2437

Description loading...

Upcoming Passes

Passes for default location (London). Set your location on the main map for personalized predictions.

Altitude History

Loading altitude history...

Two-Line Element Set

1 32954U 08025B 26106.77693193 .00000164 00000-0 11100-2 0 9994
2 32954 82.5051 35.6368 0021558 101.8184 286.2962 12.42758309811748
Epoch: Apr 16, 2026 • Age: 5 hours

Current Status

Altitude 1505.5 km
Velocity 7.11 km/s
Sub-Earth Point -21.02°S, 21.72°E
Launch Date May 23, 2008
Age 17.8 years
Type other

Technical Details

Classification Payload
Mass 225.00 kg
Dry Mass 225.00 kg
Total Mass 225.00 kg
Length 1.60 m
Diameter 0.80 m
Span 7.00 m
Shape Cyl + Ant
Manufacturer RESH
Bus Type Strela-3
Phase Status In Orbit
Owner/State KVR/RU

Most Searched